Antalya, Turkey

1:09 AM +03 on December 07, 2016 (GMT +0300)
Antalya

Weather History for LTAI - November, 2012

Change the Weather History Date:

Saturday, November 3, 2012

  Actual Average Record
Temperature  
Mean Temperature 72 °F -  
Max Temperature 81 °F 71 °F 82 °F (2007)
Min Temperature 62 °F 53 °F 46 °F (2016)
Cooling Degree Days 6    
Growing Degree Days 22 (Base 50)    
Moisture  
Dew Point 59 °F    
Average Humidity 72    
Maximum Humidity 88    
Minimum Humidity 44    
Precipitation  
Precipitation 0.00 in - - ()
Sea Level Pressure  
Sea Level Pressure 29.98 in    
Wind  
Wind Speed 4 mph ()    
Max Wind Speed 9 mph    
Max Gust Speed -    
Visibility 6.2 miles    
Events      
Averages and records for this station are not official NWS values.
T = Trace of Precipitation, MM = Missing Value Source: Averaged Metar Reports

Daily Weather History Graph

Daily Weather History Graph

Search for Another Location

Airport or City:

Trip Planner

Search our weather history database for the weather conditions in past years. The results will help you decide how hot, cold, wet, or windy it might be!

Date:

Astronomy

Nov. 03, 2012 Rise Set
Actual Time 6:22 AM EET 4:57 PM EET
Civil Twilight 5:55 AM EET 5:24 PM EET
Nautical Twilight 5:25 AM EET 5:54 PM EET
Astronomical Twilight 4:54 AM EET 6:25 PM EET
Moon 8:22 PM EET (11/3) 10:10 AM EET (11/3)
Length of Visible Light 11h 28m
Length of Day
10h 34m
Waning Gibbous, 82% of the Moon is Illuminated
Nov 3
Waning Gibbous
Nov 7
Last Quarter
Nov 14
New
Nov 20
First Quarter
Nov 28
Full

Hourly Weather History & Observations

Time (EET) Temp. Dew Point Humidity Pressure Visibility Wind Dir Wind Speed Gust Speed Precip Events Conditions
12:20 AM 64.4 °F 59.0 °F 83% 29.95 in 6.2 mi NNW 5.8 mph - N/A   Scattered Clouds
12:50 AM 64.4 °F 59.0 °F 83% 29.95 in 6.2 mi NNW 3.5 mph - N/A   Scattered Clouds
1:20 AM 64.4 °F 59.0 °F 83% 29.95 in 6.2 mi Variable 2.3 mph - N/A   Scattered Clouds
1:50 AM 64.4 °F 59.0 °F 83% 29.95 in 6.2 mi NNW 4.6 mph - N/A   Scattered Clouds
2:00 AM 64 °F 58 °F 77% 29.94 in 6 mi NNW 4.6 mph - -   Partly Cloudy
2:20 AM 64.4 °F 59.0 °F 83% 29.95 in 6.2 mi North 2.3 mph - N/A   Scattered Clouds
2:50 AM 62.6 °F 59.0 °F 88% 29.95 in 6.2 mi Variable 2.3 mph - N/A   Scattered Clouds
3:20 AM 62.6 °F 59.0 °F 88% 29.95 in 6.2 mi Variable 2.3 mph - N/A   Scattered Clouds
3:50 AM 62.6 °F 59.0 °F 88% 29.95 in 6.2 mi Variable 3.5 mph - N/A   Scattered Clouds
4:20 AM 62.6 °F 59.0 °F 88% 29.95 in 6.2 mi Variable 1.2 mph - N/A   Scattered Clouds
4:50 AM 62.6 °F 59.0 °F 88% 29.95 in 6.2 mi NE 4.6 mph - N/A   Scattered Clouds
5:20 AM 64.4 °F 59.0 °F 83% 29.98 in 6.2 mi North 5.8 mph - N/A   Scattered Clouds
5:50 AM 64.4 °F 59.0 °F 83% 29.98 in 6.2 mi NNW 6.9 mph - N/A   Scattered Clouds
6:20 AM 66.2 °F 57.2 °F 73% 29.98 in 6.2 mi Variable 8.1 mph - N/A   Mostly Cloudy
6:50 AM 64.4 °F 57.2 °F 77% 29.98 in 6.2 mi WNW 4.6 mph - N/A   Scattered Clouds
7:20 AM 66.2 °F 59.0 °F 78% 29.98 in 6.2 mi West 4.6 mph - N/A   Scattered Clouds
7:50 AM 66.2 °F 57.2 °F 73% 29.98 in 6.2 mi South 3.5 mph - N/A   Scattered Clouds
8:00 AM 66 °F 58 °F 67% 29.98 in 6 mi South 3.5 mph - -   Partly Cloudy
8:20 AM 68.0 °F 59.0 °F 73% 30.01 in 6.2 mi WNW 5.8 mph - N/A   Scattered Clouds
8:50 AM 71.6 °F 59.0 °F 64% 29.98 in 6.2 mi WNW 6.9 mph - N/A   Scattered Clouds
9:20 AM 75.2 °F 59.0 °F 57% 30.01 in 6.2 mi Variable 2.3 mph - N/A   Scattered Clouds
9:50 AM 75.2 °F 57.2 °F 53% 30.01 in 6.2 mi East 3.5 mph - N/A   Scattered Clouds
10:20 AM 75.2 °F 60.8 °F 61% 30.01 in 6.2 mi NNE 4.6 mph - N/A   Scattered Clouds
10:50 AM 77.0 °F 55.4 °F 47% 30.01 in 6.2 mi NNE 5.8 mph - N/A   Scattered Clouds
11:20 AM 78.8 °F 57.2 °F 47% 29.98 in 6.2 mi Variable 2.3 mph - N/A   Scattered Clouds
11:50 AM 78.8 °F 57.2 °F 47% 29.98 in 6.2 mi Variable 2.3 mph - N/A   Scattered Clouds
12:20 PM 78.8 °F 55.4 °F 44% 29.98 in 6.2 mi Variable 2.3 mph - N/A   Scattered Clouds
12:50 PM 77.0 °F 59.0 °F 54% 29.98 in 6.2 mi South 9.2 mph - N/A   Scattered Clouds
1:20 PM 75.2 °F 60.8 °F 61% 29.98 in 6.2 mi South 9.2 mph - N/A   Scattered Clouds
1:50 PM 75.2 °F 60.8 °F 61% 29.98 in 6.2 mi South 8.1 mph - N/A   Scattered Clouds
2:00 PM 76 °F 62 °F 52% 29.96 in 6 mi South 8.1 mph - -   Partly Cloudy
2:20 PM 75.2 °F 60.8 °F 61% 29.98 in 6.2 mi SSW 5.8 mph - N/A   Scattered Clouds
2:50 PM 75.2 °F 59.0 °F 57% 29.98 in 6.2 mi SW 4.6 mph - N/A   Scattered Clouds
3:20 PM 77.0 °F 59.0 °F 54% 29.98 in 6.2 mi SW 4.6 mph - N/A   Scattered Clouds
3:50 PM 75.2 °F 60.8 °F 61% 29.98 in 6.2 mi SW 3.5 mph - N/A   Scattered Clouds
4:20 PM 75.2 °F 62.6 °F 65% 29.98 in 6.2 mi Variable 2.3 mph - N/A   Scattered Clouds
4:50 PM 73.4 °F 60.8 °F 65% 29.98 in 6.2 mi WSW 4.6 mph - N/A   Scattered Clouds
5:20 PM 71.6 °F 62.6 °F 73% 29.98 in 6.2 mi Variable 2.3 mph - N/A   Scattered Clouds
5:50 PM 71.6 °F 60.8 °F 69% 29.98 in 6.2 mi West 3.5 mph - N/A   Scattered Clouds
6:20 PM 68.0 °F 60.8 °F 78% 29.98 in 6.2 mi Variable 2.3 mph - N/A   Scattered Clouds
6:50 PM 69.8 °F 60.8 °F 73% 29.98 in 6.2 mi SW 3.5 mph - N/A   Scattered Clouds
7:20 PM 66.2 °F 60.8 °F 83% 29.98 in 6.2 mi Variable 2.3 mph - N/A   Scattered Clouds
7:50 PM 66.2 °F 60.8 °F 83% 29.98 in 6.2 mi Variable 1.2 mph - N/A   Partly Cloudy
8:00 PM 66 °F 62 °F 81% 29.98 in 6 mi WNW 1.2 mph - -   Scattered Clouds
8:20 PM 73.4 °F 62.6 °F 69% 29.98 in 6.2 mi Variable 4.6 mph - N/A   Partly Cloudy
8:50 PM 68.0 °F 62.6 °F 83% 29.98 in - Variable 2.3 mph - N/A   Clear
9:20 PM 66.2 °F 60.8 °F 83% 29.98 in - North 4.6 mph - N/A   Clear
9:50 PM 64.4 °F 60.8 °F 88% 30.01 in - Variable 1.2 mph - N/A   Clear
10:20 PM 64.4 °F 60.8 °F 88% 30.01 in - NNW 4.6 mph - N/A   Clear
10:50 PM 64.4 °F 59.0 °F 83% 30.01 in - NNW 4.6 mph - N/A   Clear
11:20 PM 64.4 °F 59.0 °F 83% 30.01 in - Variable 2.3 mph - N/A   Clear
11:50 PM 62.6 °F 57.2 °F 82% 30.01 in - WNW 3.5 mph - N/A   Clear